DELPHINI (44030 NORAD) Tracking and Keplerian Element Data

This shows tracking and keplerian element data for the satellite.

Feedback or suggestion? Click here.




ElementValue
Catalog44030
NameDELPHINI
Epoch Orbit12109
Epoch Day73.20127863
Epoch Year2021
RAAN1.9822
Inclination51.613
Eccentricity0.0006321
Argument of Perigee224.0789
Mean Anonmoly135.9732
Mean Motion16.34207165
Decay Rate0.06612467
L11 44030U 98067PW 21073.20127863 .06612467 12175-4 91963-3 0 9996
L22 44030 51.6130 1.9822 0006321 224.0789 135.9732 16.34207165121093



Live tracking and technical data element details for DELPHINI (NORAD 44030). DELPHINI can be tracked NOW for your location showing map with azimuth and elevation plus other details from your city location.







IsCatalogInMostPopularTable: catalog: 44030, numindb: 548
Update: records affected: 1



GetName: 44030 DELPHINI

Hit Count: updated at: Thu, 23 Jan 2025 16:52:36 GMT